Weather History for PAFB - January, 2013

Change the Weather History Date:

Tuesday, January 29, 2013

  Actual Average Record
Temperature  
Mean Temperature -14 °F -  
Max Temperature -5 °F 0 °F 28 °F (2007)
Min Temperature -23 °F -12 °F -52 °F (1999)
Degree Days  
Heating Degree Days 79    
Moisture  
Dew Point -19 °F    
Average Humidity 73    
Maximum Humidity 84    
Minimum Humidity 65    
Precipitation  
Precipitation 0.00 in - - ()
Snow  
Snow 0.00 in - - ()
Snow Depth 17.00 in    
Sea Level Pressure  
Sea Level Pressure 29.99 in    
Wind  
Wind Speed 3 mph (ENE)    
Max Wind Speed 9 mph    
Max Gust Speed -    
Visibility 8 miles    
Events Snow    
Averages and records for this station are not official NWS values.
T = Trace of Precipitation, MM = Missing Value Source: NWS Daily Summary

Daily Weather History Graph

Daily Weather History Graph

Search for Another Location

Airport or City:

Trip Planner

Search our weather history database for the weather conditions in past years. The results will help you decide how hot, cold, wet, or windy it might be!

Date:

Astronomy

Jan. 29, 2013 Rise Set
Actual Time 9:44 AM AKST 4:24 PM AKST
Civil Twilight 8:43 AM AKST 5:24 PM AKST
Nautical Twilight 7:42 AM AKST 6:26 PM AKST
Astronomical Twilight 6:45 AM AKST 7:23 PM AKST
Moon 9:07 PM AKST (1/29) 9:20 AM AKST (1/29)
Length of Visible Light 8h 40m
Length of Day
6h 39m
Waning Gibbous, 93% of the Moon is Illuminated
Jan 29
Waning Gibbous
Feb 3
Last Quarter
Feb 9
New
Feb 17
First Quarter
Feb 25
Full

Hourly Weather History & Observations

Time (AKST) Temp. Windchill Dew Point Humidity Pressure Visibility Wind Dir Wind Speed Gust Speed Precip Events Conditions
12:56 AM -13.0 °F -28.6 °F -20.9 °F 68% 30.10 in 10.0 mi ENE 6.9 mph - N/A   Clear
1:56 AM -9.9 °F -27.5 °F -18.9 °F 65% 30.06 in 10.0 mi East 9.2 mph - N/A   Clear
2:56 AM -18.0 °F -34.7 °F -24.0 °F 74% 30.05 in 10.0 mi West 6.9 mph - N/A   Clear
3:56 AM -20.0 °F - -26.0 °F 74% 30.03 in 10.0 mi Calm Calm - N/A   Clear
4:56 AM -17.0 °F - -23.1 °F 74% 30.01 in 10.0 mi Calm Calm - N/A   Overcast
5:56 AM -15.0 °F - -20.9 °F 75% 29.99 in 10.0 mi Calm Calm - N/A   Overcast
6:28 AM -16.6 °F - -22.0 °F 76% 29.93 in 7.0 mi Calm Calm - N/A   Mostly Cloudy
6:55 AM -18.4 °F - -23.8 °F 76% 29.99 in 7.0 mi Calm Calm - N/A   Mostly Cloudy
7:55 AM -18.4 °F - -23.8 °F 76% 29.99 in 7.0 mi Calm Calm - N/A   Mostly Cloudy
8:55 AM -20.2 °F - -25.6 °F 76% 29.98 in 7.0 mi Calm Calm - N/A   Mostly Cloudy
9:56 AM -20.2 °F - -27.4 °F 69% 29.99 in 7.0 mi Calm Calm - N/A   Mostly Cloudy
10:55 AM -23.8 °F - -27.4 °F 83% 29.99 in 7.0 mi Calm Calm - N/A   Mostly Cloudy
11:55 AM -18.4 °F - -23.8 °F 76% 29.98 in 7.0 mi Calm Calm - N/A   Mostly Cloudy
12:55 PM -13.0 °F - -18.4 °F 77% 29.99 in 7.0 mi Calm Calm - N/A   Mostly Cloudy
1:55 PM -9.4 °F -20.9 °F -18.4 °F 65% 29.98 in 7.0 mi ENE 4.6 mph - N/A   Mostly Cloudy
2:55 PM -7.6 °F - -16.6 °F 65% 29.99 in 7.0 mi Calm Calm - N/A   Mostly Cloudy
3:55 PM -7.6 °F - -14.8 °F 71% 29.98 in 7.0 mi NE 2.3 mph - N/A   Mostly Cloudy
4:55 PM -5.8 °F - -13.0 °F 71% 29.99 in 7.0 mi NE 1.2 mph - N/A   Mostly Cloudy
5:55 PM -5.8 °F - -13.0 °F 71% 29.99 in 7.0 mi NE 1.2 mph - N/A   Mostly Cloudy
6:27 PM -5.8 °F - -13.0 °F 71% 29.93 in 6.0 mi Calm Calm - N/A Snow Light Snow
6:55 PM -5.8 °F - -13.0 °F 71% 29.97 in 6.0 mi Calm Calm - N/A Snow Light Snow
7:55 PM -5.8 °F - -13.0 °F 71% 29.97 in 6.0 mi Calm Calm - N/A Snow Light Snow
8:55 PM -7.6 °F - -13.0 °F 77% 29.97 in 6.0 mi Variable 2.3 mph - N/A Snow Light Snow
9:55 PM -9.4 °F - -13.0 °F 84% 29.98 in 6.0 mi Calm Calm - N/A Snow Light Snow
10:56 PM -8.0 °F -16.9 °F -14.1 °F 75% 29.97 in 10.0 mi NE 3.5 mph - N/A   Overcast
11:56 PM -5.1 °F -13.6 °F -11.9 °F 72% 29.98 in 9.0 mi ENE 3.5 mph - 0.00 in Snow Light Snow